sat.trackr.live / text

‹ back to catalog

STARLINK-3571

NORAD 51857 · 2022-022F

PAYLOAD ACTIVE UNKNOWN

§ Identity

Operator
Country
US
Launch date
2022-03-03
Launch site
AFETR
Launch vehicle
Mass (kg)
RCS (m²)

Purposes: comms

External: N2YO · Heavens-Above · Gunter

§ Orbital elements

Epoch: 2026-05-25T00:16:15.824064Z

Period
95.43 min
Inclination
53.2129°
Eccentricity
0.0001880
Mean motion
15.08890433 rev/d
Perigee alt
538.3 km
Apogee alt
540.9 km
Semi-major
6,917.7 km
B*
-2.5167e-5
RAAN
36.5112°
Arg perigee
80.9364°
Mean anomaly
279.1841°
Rev number
23,454

§ Raw data

STARLINK-35711 51857U 22022F   26145.01129426 -.00000689  00000+0 -25167-4 0  99962 51857  53.2129  36.5112 0001880  80.9364 279.1841 15.08890433234546

JSON: /api/v1/satellites/51857 · /tle

For live sub-satellite position, see the globe view (requires WebGL).

§ Visibility from observer

Set your observer location to see the next 7 days of passes ≥ 10°. The values pass through the URL so the page stays shareable.

No JS? Fill the form by hand. The geolocation button needs JavaScript.